Sanger
DateTemperatureDew Point
05/06 - 05:15 AM49.7°49.7°
05/06 - 05:00 AM50.8°50.8°
05/06 - 04:45 AM51.3°51.3°
05/06 - 04:30 AM51.3°51.3°
05/06 - 04:15 AM51.3°51.3°
05/06 - 04:00 AM51.5°51.5°
05/06 - 03:45 AM52.0°52.0°
05/06 - 03:30 AM51.8°51.8°
05/06 - 03:15 AM51.6°51.6°
05/06 - 03:00 AM51.1°51.1°
05/06 - 02:45 AM51.6°51.6°
05/06 - 02:30 AM51.9°51.9°
05/06 - 02:15 AM52.4°52.4°
05/06 - 02:00 AM52.1°52.1°
05/06 - 01:45 AM52.0°51.9°
05/06 - 01:30 AM52.8°52.5°
05/06 - 01:15 AM53.5°53.1°
05/06 - 01:00 AM53.4°52.8°
05/06 - 12:45 AM53.7°52.8°
05/06 - 12:30 AM53.7°52.3°
05/06 - 12:15 AM54.9°52.6°
05/06 - 12:00 AM55.9°53.1°
05/05 - 11:45 PM56.2°53.2°
05/05 - 11:30 PM56.5°53.1°
05/05 - 11:15 PM56.7°53.1°
05/05 - 11:00 PM56.9°53.1°
05/05 - 10:45 PM57.5°53.1°
05/05 - 10:30 PM57.7°52.9°
05/05 - 10:15 PM58.0°53.1°
05/05 - 10:00 PM57.8°53.2°
05/05 - 09:45 PM57.1°53.6°
05/05 - 09:30 PM55.5°52.9°
05/05 - 09:15 PM56.0°52.5°
05/05 - 09:00 PM56.9°52.5°
05/05 - 08:45 PM58.3°52.5°
05/05 - 08:30 PM59.6°52.1°
05/05 - 08:15 PM60.6°52.0°
05/05 - 08:00 PM61.9°51.4°
05/05 - 07:45 PM63.4°51.4°
05/05 - 07:30 PM64.7°51.1°
05/05 - 07:15 PM66.0°50.9°
05/05 - 07:00 PM67.0°50.2°
05/05 - 06:45 PM67.5°50.0°
05/05 - 06:30 PM68.2°49.9°
05/05 - 06:15 PM69.0°49.7°
05/05 - 06:00 PM69.0°49.4°
05/05 - 05:45 PM68.8°49.9°
05/05 - 05:30 PM68.8°50.0°
05/05 - 05:15 PM69.6°50.3°
05/05 - 05:00 PM68.8°49.5°
05/05 - 04:45 PM69.7°49.3°
05/05 - 04:30 PM70.8°50.4°
05/05 - 04:15 PM70.5°50.4°
05/05 - 04:00 PM71.1°50.0°
05/05 - 03:45 PM70.5°49.1°
05/05 - 03:30 PM72.3°49.6°
05/05 - 03:15 PM72.8°48.9°
05/05 - 03:00 PM72.2°48.3°
05/05 - 02:45 PM72.0°48.6°
05/05 - 02:30 PM71.6°50.1°
05/05 - 02:15 PM69.1°49.5°
05/05 - 02:00 PM70.6°50.5°
05/05 - 01:45 PM71.2°50.6°
05/05 - 01:30 PM68.4°49.7°
05/05 - 01:15 PM69.0°49.5°
05/05 - 01:00 PM69.3°50.4°
05/05 - 12:45 PM68.6°50.1°
05/05 - 12:30 PM68.2°50.3°
05/05 - 12:15 PM67.6°50.4°
05/05 - 12:00 PM65.9°50.1°
05/05 - 11:45 AM64.1°50.3°
05/05 - 11:30 AM63.5°50.7°
05/05 - 11:15 AM62.4°50.9°
05/05 - 11:00 AM61.3°50.5°
05/05 - 10:45 AM60.0°50.1°
05/05 - 10:30 AM59.3°49.9°
05/05 - 10:15 AM58.3°50.4°
05/05 - 10:00 AM57.9°50.7°
05/05 - 09:45 AM57.6°51.0°
05/05 - 09:30 AM56.8°51.0°
05/05 - 09:15 AM56.2°50.6°
05/05 - 09:00 AM56.0°50.6°
05/05 - 08:45 AM55.6°50.8°
05/05 - 08:30 AM55.2°50.7°
05/05 - 08:15 AM55.1°50.6°
05/05 - 08:00 AM55.4°50.8°
05/05 - 07:45 AM55.3°51.2°
05/05 - 07:30 AM55.1°51.0°
05/05 - 07:15 AM54.8°51.0°
05/05 - 07:00 AM54.6°50.8°
05/05 - 06:45 AM54.5°50.9°
05/05 - 06:30 AM54.5°51.2°
05/05 - 06:15 AM54.5°51.2°
05/05 - 06:00 AM54.6°51.2°
05/05 - 05:45 AM54.9°51.3°
05/05 - 05:30 AM55.1°51.3°
05/05 - 05:15 AM55.4°51.3°
05/05 - 05:00 AM55.6°51.7°
05/05 - 04:45 AM55.9°51.8°
05/05 - 04:30 AM56.0°51.5°
05/05 - 04:15 AM56.1°51.3°
05/05 - 04:00 AM56.3°51.2°
05/05 - 03:45 AM56.3°51.3°
05/05 - 03:30 AM56.2°51.4°
05/05 - 03:15 AM56.2°51.5°
05/05 - 03:00 AM56.2°51.6°
05/05 - 02:45 AM56.2°51.6°
05/05 - 02:30 AM56.1°51.7°
05/05 - 02:15 AM56.2°51.7°
05/05 - 02:00 AM56.1°51.8°
05/05 - 01:45 AM56.0°52.1°
05/05 - 01:30 AM55.9°52.5°
05/05 - 01:15 AM55.7°52.8°
05/05 - 01:00 AM55.2°52.9°
05/05 - 12:45 AM54.5°52.4°
05/05 - 12:30 AM54.8°51.9°
05/05 - 12:15 AM55.5°52.0°
05/05 - 12:00 AM55.9°52.3°
05/04 - 11:45 PM55.9°52.6°
05/04 - 11:30 PM55.7°52.7°
05/04 - 11:15 PM55.4°52.7°
05/04 - 11:00 PM55.5°52.6°
05/04 - 10:45 PM55.2°52.4°
05/04 - 10:30 PM55.3°52.6°
05/04 - 10:15 PM55.4°52.6°
05/04 - 10:00 PM55.4°52.3°
05/04 - 09:45 PM56.3°52.6°
05/04 - 09:30 PM57.8°52.5°
05/04 - 09:15 PM58.9°51.8°
05/04 - 09:00 PM59.3°51.5°
05/04 - 08:45 PM59.4°51.3°
05/04 - 08:30 PM59.5°51.3°
05/04 - 08:15 PM59.7°51.1°
05/04 - 08:00 PM59.6°50.8°
05/04 - 07:45 PM59.7°51.5°
05/04 - 07:30 PM60.0°51.3°
05/04 - 07:15 PM60.5°51.1°
05/04 - 07:00 PM61.2°50.7°
05/04 - 06:45 PM61.5°50.6°
05/04 - 06:30 PM61.6°50.2°
05/04 - 06:15 PM62.7°50.6°
05/04 - 06:00 PM63.4°50.0°
05/04 - 05:45 PM65.0°51.3°
05/04 - 05:30 PM63.1°50.0°
05/04 - 05:15 PM62.8°50.1°
05/04 - 05:00 PM63.0°50.0°
05/04 - 04:45 PM63.1°50.3°
05/04 - 04:30 PM62.9°50.6°
05/04 - 04:15 PM63.3°50.6°
05/04 - 04:00 PM63.4°50.3°
05/04 - 03:45 PM63.4°50.8°
05/04 - 03:30 PM63.2°50.6°
05/04 - 03:15 PM63.3°50.9°
05/04 - 03:00 PM62.9°51.1°
05/04 - 02:45 PM62.7°50.9°
05/04 - 02:30 PM62.2°50.7°
05/04 - 02:15 PM61.5°50.5°
05/04 - 02:00 PM61.9°49.9°
05/04 - 01:45 PM62.1°49.3°
05/04 - 01:30 PM62.3°49.0°
05/04 - 01:15 PM61.7°47.6°
05/04 - 01:00 PM61.5°47.8°
05/04 - 12:45 PM61.5°48.7°
05/04 - 12:30 PM61.0°48.8°
05/04 - 12:15 PM60.5°48.9°
05/04 - 12:00 PM61.1°49.5°
05/04 - 11:45 AM60.9°49.7°
05/04 - 11:30 AM60.4°49.5°
05/04 - 11:15 AM60.1°49.7°
05/04 - 11:00 AM59.5°49.4°
05/04 - 10:45 AM59.4°49.8°
05/04 - 10:30 AM58.7°49.4°
05/04 - 10:15 AM58.4°49.1°
05/04 - 10:00 AM58.3°49.2°
05/04 - 09:45 AM57.9°49.0°
05/04 - 09:30 AM58.0°49.2°
05/04 - 09:15 AM58.0°49.2°
05/04 - 09:00 AM57.8°49.3°
05/04 - 08:45 AM57.3°49.1°
05/04 - 08:30 AM57.1°49.4°
05/04 - 08:15 AM56.7°49.2°
05/04 - 08:00 AM56.6°48.7°
05/04 - 07:45 AM56.5°48.7°
05/04 - 07:30 AM56.5°48.4°
05/04 - 07:15 AM56.3°48.0°
05/04 - 07:00 AM56.3°47.7°
05/04 - 06:45 AM56.4°47.5°
05/04 - 06:30 AM56.4°48.1°
05/04 - 06:15 AM56.4°48.6°
05/04 - 06:00 AM56.3°49.1°
05/04 - 05:45 AM56.2°49.9°